| time (UTC) | temp F | wind direction | speed MPH | gust MPH | rain 1hr in | rain 24hr in | rain mn in | humidity % | barometer mb |
| 20260831010036 | 75 | 265 | 0.0 | 7.0 | 0.00 | 0.00 | 0.00 | 44 | 1018.0 |
| 20260831004536 | 76 | 326 | 0.0 | 4.0 | 0.00 | 0.00 | 0.00 | 44 | 1017.9 |
| 20260831003035 | 75 | 273 | 0.0 | 3.0 | 0.00 | 0.00 | 0.00 | 43 | 1018.0 |
| 20260831001534 | 75 | 282 | 1.0 | 8.0 | 0.00 | 0.00 | 0.00 | 43 | 1018.0 |
| 20260831000037 | 75 | 294 | 0.0 | 5.0 | 0.00 | 0.00 | 0.00 | 42 | 1018.0 |
| 20260830234537 | 75 | 289 | 0.0 | 7.0 | 0.00 | 0.00 | 0.00 | 42 | 1018.2 |
| 20260830233031 | 75 | 297 | 0.0 | 7.0 | 0.00 | 0.00 | 0.00 | 42 | 1018.4 |
| 20260830231533 | 76 | 302 | 0.0 | 7.0 | 0.00 | 0.00 | 0.00 | 41 | 1018.5 |
| 20260830230035 | 75 | 314 | 1.0 | 7.0 | 0.00 | 0.00 | 0.00 | 42 | 1018.7 |
| 20260830224538 | 76 | 328 | 0.0 | 3.0 | 0.00 | 0.00 | 0.00 | 43 | 1018.8 |
| 20260830223036 | 76 | 330 | 0.0 | 5.0 | 0.00 | 0.00 | 0.00 | 45 | 1019.0 |
| 20260830221535 | 75 | 348 | 0.0 | 5.0 | 0.00 | 0.00 | 0.00 | 46 | 1019.2 |
| 20260830214532 | 75 | 341 | 1.0 | 6.0 | 0.00 | 0.00 | 0.00 | 47 | 1019.7 |
| 20260830213032 | 75 | 343 | 0.0 | 5.0 | 0.00 | 0.00 | 0.00 | 47 | 1019.9 |
| 20260830211642 | 74 | 337 | 0.0 | 5.0 | 0.00 | 0.00 | 0.00 | 47 | 1020.0 |
| 20260830210030 | 74 | 350 | 0.0 | 5.0 | 0.00 | 0.00 | 0.00 | 47 | 1020.1 |
| 20260830204650 | 74 | 340 | 1.0 | 8.0 | 0.00 | 0.00 | 0.00 | 48 | 1020.2 |
| 20260830203032 | 73 | 359 | 1.0 | 5.0 | 0.00 | 0.00 | 0.00 | 47 | 1020.5 |
| 20260830201651 | 74 | 5 | 1.0 | 8.0 | 0.00 | 0.00 | 0.00 | 47 | 1020.7 |
| 20260830200154 | 73 | 309 | 1.0 | 5.0 | 0.00 | 0.00 | 0.00 | 49 | 1020.9 |
| 20260830194541 | 72 | 341 | 0.0 | 4.0 | 0.00 | 0.00 | 0.00 | 51 | 1021.0 |
| 20260830193110 | 72 | 1 | 1.0 | 5.0 | 0.00 | 0.00 | 0.00 | 51 | 1021.1 |
| 20260830191532 | 72 | 8 | 0.0 | 4.0 | 0.00 | 0.00 | 0.00 | 51 | 1021.3 |
| 20260830190037 | 71 | 318 | 0.0 | 4.0 | 0.00 | 0.00 | 0.00 | 53 | 1021.5 |
| 20260830184530 | 71 | 345 | 1.0 | 6.0 | 0.00 | 0.00 | 0.00 | 54 | 1021.7 |
| 20260830181535 | 69 | 320 | 0.0 | 3.0 | 0.00 | 0.00 | 0.00 | 56 | 1021.9 |
| 20260830180035 | 68 | 355 | 0.0 | 5.0 | 0.00 | 0.00 | 0.00 | 58 | 1021.9 |
| 20260830173032 | 65 | 11 | 1.0 | 5.0 | 0.00 | 0.00 | 0.00 | 60 | 1022.0 |
| 20260830171535 | 65 | 51 | 1.0 | 4.0 | 0.00 | 0.00 | 0.00 | 61 | 1022.1 |
| 20260830170034 | 64 | 57 | 1.0 | 4.0 | 0.00 | 0.00 | 0.00 | 64 | 1022.3 |
| 20260830164534 | 63 | 46 | 0.0 | 3.0 | 0.00 | 0.00 | 0.00 | 67 | 1022.5 |
| 20260830163031 | 62 | 94 | 1.0 | 3.0 | 0.00 | 0.00 | 0.00 | 70 | 1022.7 |
| 20260830161535 | 60 | 58 | 0.0 | 4.0 | 0.00 | 0.00 | 0.00 | 74 | 1022.9 |
| 20260830160034 | 59 | 88 | 0.0 | 2.0 | 0.00 | 0.00 | 0.00 | 78 | 1023.2 |
| 20260830154534 | 57 | 206 | 0.0 | 0.0 | 0.00 | 0.00 | 0.00 | 84 | 1023.3 |
| 20260830153035 | 55 | 225 | 0.0 | 0.0 | 0.00 | 0.00 | 0.00 | 91 | 1023.3 |
| 20260830151538 | 52 | 225 | 0.0 | 0.0 | 0.00 | 0.00 | 0.00 | 95 | 1023.3 |
| 20260830150111 | 49 | 225 | 0.0 | 0.0 | 0.00 | 0.00 | 0.00 | 97 | 1023.3 |
| 20260830144532 | 46 | 225 | 0.0 | 0.0 | 0.00 | 0.00 | 0.00 | 96 | 1023.3 |
| 20260830143108 | 42 | 225 | 0.0 | 0.0 | 0.00 | 0.00 | 0.00 | 96 | 1023.1 |
| 20260830141536 | 41 | 225 | 0.0 | 0.0 | 0.00 | 0.00 | 0.00 | 95 | 1023.0 |
| 20260830140033 | 41 | 225 | 0.0 | 2.0 | 0.00 | 0.00 | 0.00 | 95 | 1022.8 |
| 20260830134542 | 41 | 225 | 0.0 | 1.0 | 0.00 | 0.00 | 0.00 | 95 | 1022.7 |
| 20260830133038 | 42 | 225 | 0.0 | 0.0 | 0.00 | 0.00 | 0.00 | 95 | 1022.6 |
| 20260830131610 | 42 | 225 | 0.0 | 2.0 | 0.00 | 0.00 | 0.00 | 95 | 1022.4 |
| 20260830130030 | 42 | 221 | 0.0 | 1.0 | 0.00 | 0.00 | 0.00 | 94 | 1022.3 |
| 20260830124608 | 42 | 202 | 0.0 | 0.0 | 0.00 | 0.00 | 0.00 | 94 | 1022.3 |
| 20260830123032 | 43 | 202 | 0.0 | 2.0 | 0.00 | 0.00 | 0.00 | 94 | 1022.3 |
| 20260830121535 | 43 | 225 | 0.0 | 2.0 | 0.00 | 0.00 | 0.00 | 94 | 1022.3 |
| 20260830120153 | 43 | 226 | 0.0 | 1.0 | 0.00 | 0.00 | 0.00 | 94 | 1022.3 |
| 20260830114530 | 43 | 225 | 0.0 | 1.0 | 0.00 | 0.00 | 0.00 | 93 | 1022.2 |
| 20260830113036 | 43 | 202 | 0.0 | 0.0 | 0.00 | 0.00 | 0.00 | 93 | 1022.1 |
| 20260830111609 | 43 | 202 | 0.0 | 0.0 | 0.00 | 0.00 | 0.00 | 93 | 1022.2 |
| 20260830110036 | 44 | 209 | 0.0 | 2.0 | 0.00 | 0.00 | 0.00 | 93 | 1022.2 |
| 20260830104536 | 44 | 225 | 0.0 | 3.0 | 0.00 | 0.00 | 0.00 | 93 | 1022.2 |
| 20260830103035 | 45 | 184 | 0.0 | 2.0 | 0.00 | 0.00 | 0.00 | 93 | 1022.2 |
| 20260830101536 | 45 | 220 | 0.0 | 3.0 | 0.00 | 0.00 | 0.00 | 92 | 1022.2 |
| 20260830100031 | 45 | 259 | 0.0 | 2.0 | 0.00 | 0.00 | 0.00 | 92 | 1022.2 |
| 20260830094609 | 45 | 201 | 0.0 | 2.0 | 0.00 | 0.00 | 0.00 | 92 | 1022.2 |
| 20260830093036 | 44 | 231 | 0.0 | 3.0 | 0.00 | 0.00 | 0.00 | 92 | 1022.1 |
| 20260830091532 | 44 | 228 | 0.0 | 2.0 | 0.00 | 0.00 | 0.00 | 91 | 1022.1 |
| 20260830090035 | 45 | 247 | 0.0 | 3.0 | 0.00 | 0.00 | 0.00 | 91 | 1022.1 |
| 20260830084535 | 45 | 232 | 0.0 | 5.0 | 0.00 | 0.00 | 0.00 | 90 | 1022.2 |
| 20260830081530 | 45 | 202 | 0.0 | 2.0 | 0.00 | 0.00 | 0.00 | 89 | 1022.3 |
| 20260830080108 | 46 | 182 | 0.0 | 1.0 | 0.00 | 0.00 | 0.00 | 88 | 1022.4 |
| 20260830074534 | 46 | 194 | 0.0 | 2.0 | 0.00 | 0.00 | 0.00 | 87 | 1022.4 |
| 20260830071530 | 48 | 217 | 0.0 | 2.0 | 0.00 | 0.00 | 0.00 | 86 | 1022.3 |
| 20260830070035 | 48 | 175 | 0.0 | 4.0 | 0.00 | 0.00 | 0.00 | 86 | 1022.3 |
| 20260830064535 | 48 | 215 | 0.0 | 3.0 | 0.00 | 0.00 | 0.00 | 85 | 1022.2 |
| 20260830063036 | 48 | 202 | 0.0 | 3.0 | 0.00 | 0.00 | 0.00 | 83 | 1022.2 |
| 20260830061535 | 49 | 202 | 0.0 | 0.0 | 0.00 | 0.00 | 0.00 | 81 | 1022.3 |
| 20260830060032 | 50 | 217 | 0.0 | 2.0 | 0.00 | 0.00 | 0.00 | 80 | 1022.3 |
| 20260830053031 | 52 | 225 | 0.0 | 1.0 | 0.00 | 0.00 | 0.00 | 76 | 1022.2 |
| 20260830051534 | 53 | 218 | 0.0 | 2.0 | 0.00 | 0.00 | 0.00 | 73 | 1022.2 |
| 20260830044534 | 54 | 239 | 0.0 | 5.0 | 0.00 | 0.00 | 0.00 | 72 | 1022.2 |
| 20260830043036 | 55 | 215 | 0.0 | 3.0 | 0.00 | 0.00 | 0.00 | 71 | 1022.0 |
| 20260830041610 | 56 | 221 | 0.0 | 2.0 | 0.00 | 0.00 | 0.00 | 70 | 1021.8 |
| 20260830040037 | 56 | 161 | 0.0 | 2.0 | 0.00 | 0.00 | 0.00 | 69 | 1021.6 |
| 20260830033035 | 58 | 270 | 0.0 | 1.0 | 0.00 | 0.00 | 0.00 | 67 | 1021.4 |
| 20260830030033 | 59 | 283 | 0.0 | 2.0 | 0.00 | 0.00 | 0.00 | 66 | 1021.2 |
| 20260830024536 | 60 | 272 | 0.0 | 2.0 | 0.00 | 0.00 | 0.00 | 66 | 1021.1 |
| 20260830021609 | 61 | 283 | 0.0 | 7.0 | 0.00 | 0.00 | 0.00 | 66 | 1021.2 |
| 20260830013031 | 64 | 304 | 0.0 | 5.0 | 0.00 | 0.00 | 0.00 | 61 | 1021.0 |